DHK25MD EGCC-LGKO

Flight info

Callsign DHK25MD
Flight time 3h 36m
Altitude 33000
Route SONEX UL975 DESIG L603 DOLAS DCT NAVPI DCT DODEN DCT NEGIX DCT DINKU DCT BESNI DCT LATLO DCT OBEDI DCT BERTA DCT TEBLI DCT TIVNU DCT MEDUX UM867 KOGAT DCT ERANA UL737 TSL UN130 MES UN139 LURUS L995 KOPAR
Aircraft B77L/H-SDE1E2E3FGHIJ2J3J4J5M1RWXY/LB1D1

Departure

Time 2026-05-04 16:18
Airport Manchester Airport (EGCC)

Arrival

Time 2026-05-04 19:54
Airport Kos International Airport "Ippokratis" (LGKO)
Time Latitude Longitude Altitude Speed Heading
2026-05-04 15:46 53.37039 -2.28848 260 ft 0 kts 314°
2026-05-04 16:01 53.37029 -2.28830 259 ft 4 kts 307°
2026-05-04 16:01 53.37016 -2.28791 259 ft 4 kts 284°
2026-05-04 16:02 53.37015 -2.28749 259 ft 4 kts 246°
2026-05-04 16:02 53.37022 -2.28728 259 ft 1 kts 225°
2026-05-04 16:05 53.36982 -2.28794 259 ft 8 kts 225°
2026-05-04 16:06 53.36944 -2.28857 259 ft 8 kts 224°
2026-05-04 16:06 53.36840 -2.29020 259 ft 8 kts 213°
2026-05-04 16:07 53.36775 -2.29066 259 ft 8 kts 197°
2026-05-04 16:07 53.36647 -2.28918 259 ft 8 kts 136°
2026-05-04 16:08 53.36610 -2.28853 259 ft 8 kts 126°
2026-05-04 16:08 53.36511 -2.28642 259 ft 8 kts 134°
2026-05-04 16:09 53.36438 -2.28510 259 ft 8 kts 125°
2026-05-04 16:09 53.36373 -2.28338 259 ft 12 kts 132°
2026-05-04 16:10 53.36256 -2.28138 259 ft 12 kts 135°
2026-05-04 16:11 53.36068 -2.27858 259 ft 11 kts 142°
2026-05-04 16:11 53.36009 -2.27782 259 ft 11 kts 143°
2026-05-04 16:12 53.35793 -2.27689 256 ft 10 kts 144°
2026-05-04 16:12 53.35648 -2.27559 250 ft 6 kts 143°
2026-05-04 16:13 53.35570 -2.27455 250 ft 8 kts 141°
2026-05-04 16:13 53.35486 -2.27343 253 ft 8 kts 140°
2026-05-04 16:14 53.35382 -2.27211 250 ft 10 kts 155°
2026-05-04 16:14 53.35239 -2.27313 243 ft 14 kts 230°
2026-05-04 16:15 53.35061 -2.27490 234 ft 0 kts 171°
2026-05-04 16:16 53.34909 -2.27532 227 ft 0 kts 229°
2026-05-04 16:17 53.34834 -2.27683 227 ft 41 kts 231°
2026-05-04 16:18 53.33136 -2.31220 416 ft 182 kts 232°
2026-05-04 16:18 53.32349 -2.32904 949 ft 186 kts 234°
2026-05-04 16:19 53.32446 -2.39179 2118 ft 212 kts 309°
2026-05-04 16:19 53.35237 -2.41709 2595 ft 249 kts 344°
2026-05-04 16:20 53.40378 -2.44141 4603 ft 259 kts 343°
2026-05-04 16:20 53.43964 -2.44906 5006 ft 269 kts 17°
2026-05-04 16:21 53.46760 -2.37557 6107 ft 275 kts 87°
2026-05-04 16:22 53.46818 -2.31081 6845 ft 277 kts 90°
2026-05-04 16:22 53.46815 -2.21340 7945 ft 280 kts 90°
2026-05-04 16:23 53.46518 -2.11489 9122 ft 286 kts 102°
2026-05-04 16:24 53.44662 -1.99462 10994 ft 298 kts 104°
2026-05-04 16:25 53.43633 -1.92637 12012 ft 305 kts 104°
2026-05-04 16:26 53.41583 -1.78600 14083 ft 313 kts 104°
2026-05-04 16:26 53.40044 -1.67959 15546 ft 316 kts 104°
2026-05-04 16:27 53.39000 -1.60764 16563 ft 319 kts 104°
2026-05-04 16:28 53.37407 -1.49840 18163 ft 326 kts 104°
2026-05-04 16:28 53.35761 -1.38623 19594 ft 338 kts 104°
2026-05-04 16:29 53.33266 -1.21785 20065 ft 406 kts 104°
2026-05-04 16:30 53.31133 -1.07517 21286 ft 430 kts 104°
2026-05-04 16:31 53.29664 -0.97761 22413 ft 436 kts 104°
2026-05-04 16:31 53.27413 -0.82932 24181 ft 441 kts 104°
2026-05-04 16:32 53.25118 -0.67957 25544 ft 449 kts 103°
2026-05-04 16:33 53.23544 -0.57753 26253 ft 459 kts 104°
2026-05-04 16:33 53.21929 -0.47376 27232 ft 461 kts 104°
2026-05-04 16:34 53.20302 -0.36975 28113 ft 466 kts 104°
2026-05-04 16:34 53.19477 -0.31721 28508 ft 468 kts 104°
2026-05-04 16:35 53.16970 -0.15868 29666 ft 475 kts 104°
2026-05-04 16:35 53.14429 0.00048 30837 ft 475 kts 105°
2026-05-04 16:36 53.11826 0.16192 31633 ft 479 kts 105°
2026-05-04 16:37 53.10095 0.26847 32488 ft 475 kts 105°
2026-05-04 16:37 53.09226 0.32171 32814 ft 475 kts 105°
2026-05-04 16:37 53.07474 0.42853 33034 ft 480 kts 105°
2026-05-04 16:38 53.05716 0.53509 33026 ft 477 kts 106°
2026-05-04 16:39 53.01255 0.80243 33045 ft 484 kts 106°
2026-05-04 16:40 52.97554 1.01826 33032 ft 486 kts 110°
2026-05-04 16:41 52.91548 1.28153 33040 ft 490 kts 112°
2026-05-04 16:43 52.85507 1.54492 33027 ft 490 kts 113°
2026-05-04 16:43 52.81850 1.70293 33036 ft 490 kts 113°
2026-05-04 16:45 52.74485 2.01757 33007 ft 490 kts 114°
2026-05-04 16:46 52.68270 2.27956 33022 ft 490 kts 114°
2026-05-04 16:47 52.63259 2.48853 33015 ft 491 kts 114°
2026-05-04 16:48 52.58207 2.69721 33013 ft 491 kts 115°
2026-05-04 16:49 52.52764 2.90207 33011 ft 488 kts 122°
2026-05-04 16:50 52.46148 3.09644 32997 ft 487 kts 123°
2026-05-04 16:51 52.41219 3.24200 33011 ft 486 kts 123°
2026-05-04 16:52 52.34659 3.43515 33002 ft 485 kts 123°
2026-05-04 16:53 52.29748 3.57868 32992 ft 484 kts 124°
2026-05-04 16:54 52.23145 3.77037 32985 ft 484 kts 124°
2026-05-04 16:55 52.13199 4.05638 32960 ft 481 kts 124°
2026-05-04 16:56 52.04949 4.29113 32966 ft 478 kts 125°
2026-05-04 16:57 51.99972 4.43169 32995 ft 478 kts 125°
2026-05-04 16:58 51.93311 4.61858 32992 ft 478 kts 125°
2026-05-04 17:00 51.83316 4.89655 32947 ft 476 kts 125°
2026-05-04 17:01 51.74956 5.12663 32960 ft 474 kts 125°
2026-05-04 17:02 51.68242 5.30994 32955 ft 474 kts 125°
2026-05-04 17:03 51.63197 5.44685 32963 ft 474 kts 126°
2026-05-04 17:03 51.59344 5.55088 32962 ft 476 kts 126°
2026-05-04 17:06 51.54891 5.67058 32969 ft 477 kts 126°
2026-05-04 17:07 51.50923 5.77679 32958 ft 478 kts 126°
2026-05-04 17:07 51.46325 5.89932 32960 ft 480 kts 126°
2026-05-04 17:08 51.41162 6.03621 32962 ft 481 kts 126°
2026-05-04 17:09 51.37687 6.12795 32963 ft 481 kts 126°
2026-05-04 17:09 51.34773 6.20463 32963 ft 481 kts 126°
2026-05-04 17:10 51.26057 6.43256 32983 ft 482 kts 127°
2026-05-04 17:11 51.22551 6.52369 32963 ft 482 kts 127°
2026-05-04 17:12 51.17270 6.66034 32990 ft 483 kts 127°
2026-05-04 17:13 51.08388 6.88857 32993 ft 485 kts 127°
2026-05-04 17:14 51.01252 7.07045 32996 ft 487 kts 127°
2026-05-04 17:15 50.95838 7.20760 32980 ft 489 kts 127°
2026-05-04 17:16 50.88623 7.38930 33002 ft 488 kts 128°
2026-05-04 17:17 50.81345 7.57125 32994 ft 489 kts 127°
2026-05-04 17:18 50.74020 7.75313 33012 ft 492 kts 128°
2026-05-04 17:19 50.66666 7.93450 33017 ft 493 kts 128°
2026-05-04 17:20 50.59148 8.11549 33031 ft 490 kts 130°
2026-05-04 17:20 50.52753 8.24012 32991 ft 485 kts 134°
2026-05-04 17:21 50.44381 8.40359 32716 ft 478 kts 129°
2026-05-04 17:22 50.42309 8.44412 32856 ft 474 kts 129°
2026-05-04 17:22 50.40239 8.48453 33176 ft 480 kts 133°
2026-05-04 17:23 50.33569 8.60419 32999 ft 489 kts 137°
2026-05-04 17:23 50.31239 8.64284 32993 ft 487 kts 138°
2026-05-04 17:24 50.24290 8.75806 32972 ft 482 kts 137°
2026-05-04 17:25 50.15156 8.90973 32977 ft 479 kts 138°
2026-05-04 17:26 50.05994 9.06107 32979 ft 480 kts 138°
2026-05-04 17:27 49.94502 9.24955 32978 ft 483 kts 138°
2026-05-04 17:28 49.85227 9.40078 32990 ft 485 kts 138°
2026-05-04 17:29 49.76748 9.53816 32963 ft 485 kts 137°
2026-05-04 17:31 49.70267 9.64271 32990 ft 483 kts 138°
2026-05-04 17:32 49.58596 9.82984 32975 ft 485 kts 138°
2026-05-04 17:33 49.49213 9.97930 32961 ft 485 kts 137°
2026-05-04 17:34 49.39819 10.12809 32970 ft 485 kts 137°
2026-05-04 17:35 49.28082 10.31278 32953 ft 484 kts 137°
2026-05-04 17:36 49.23367 10.38661 32976 ft 483 kts 137°
2026-05-04 17:36 49.18589 10.45866 32998 ft 482 kts 139°
2026-05-04 17:37 49.13752 10.52995 33000 ft 482 kts 139°
2026-05-04 17:37 49.08929 10.60107 33000 ft 482 kts 139°
2026-05-04 17:38 49.04112 10.67224 32976 ft 481 kts 139°
2026-05-04 17:38 48.99338 10.74267 32983 ft 480 kts 139°
2026-05-04 17:39 48.92134 10.84853 32973 ft 479 kts 139°
2026-05-04 17:39 48.87329 10.91889 32951 ft 479 kts 139°
2026-05-04 17:40 48.82527 10.98901 32935 ft 479 kts 139°
2026-05-04 17:40 48.77717 11.05903 32936 ft 479 kts 139°
2026-05-04 17:41 48.72896 11.12905 32945 ft 480 kts 139°
2026-05-04 17:41 48.68062 11.19907 32947 ft 481 kts 139°
2026-05-04 17:42 48.63309 11.26920 32925 ft 482 kts 135°
2026-05-04 17:42 48.58789 11.34446 32915 ft 482 kts 135°
2026-05-04 17:43 48.54289 11.41976 32925 ft 482 kts 135°
2026-05-04 17:43 48.49771 11.49485 32927 ft 483 kts 135°
2026-05-04 17:44 48.45242 11.56965 32942 ft 483 kts 135°
2026-05-04 17:44 48.40726 11.64398 32938 ft 483 kts 135°
2026-05-04 17:45 48.36187 11.71848 32932 ft 483 kts 135°
2026-05-04 17:45 48.31644 11.79285 32938 ft 482 kts 135°
2026-05-04 17:46 48.27106 11.86694 32940 ft 481 kts 135°
2026-05-04 17:46 48.22569 11.94080 32937 ft 481 kts 135°
2026-05-04 17:47 48.18031 12.01446 32936 ft 480 kts 135°
2026-05-04 17:47 48.13489 12.08797 32923 ft 480 kts 135°
2026-05-04 17:48 48.08975 12.16083 32926 ft 480 kts 136°
2026-05-04 17:48 48.04422 12.23413 32921 ft 481 kts 136°
2026-05-04 17:49 47.99858 12.30739 32925 ft 481 kts 136°
2026-05-04 17:49 47.95278 12.38046 32919 ft 481 kts 136°
2026-05-04 17:50 47.90652 12.45243 32914 ft 480 kts 136°
2026-05-04 17:50 47.86016 12.52405 32914 ft 479 kts 136°
2026-05-04 17:51 47.81420 12.59508 32916 ft 479 kts 136°
2026-05-04 17:51 47.76797 12.66649 32914 ft 479 kts 136°
2026-05-04 17:52 47.72172 12.73778 32903 ft 480 kts 136°
2026-05-04 17:52 47.67519 12.80926 32918 ft 481 kts 136°
2026-05-04 17:53 47.62848 12.88088 32914 ft 483 kts 136°
2026-05-04 17:53 47.58167 12.95237 32919 ft 483 kts 136°
2026-05-04 17:54 47.53505 13.02342 32924 ft 482 kts 137°
2026-05-04 17:54 47.48831 13.09450 32927 ft 481 kts 137°
2026-05-04 17:55 47.44942 13.15345 32953 ft 481 kts 137°
2026-05-04 17:55 47.40255 13.22433 32953 ft 482 kts 137°
2026-05-04 17:56 47.35564 13.29510 32979 ft 482 kts 137°
2026-05-04 17:56 47.30865 13.36577 32972 ft 482 kts 137°
2026-05-04 17:57 47.26169 13.43618 33003 ft 481 kts 137°
2026-05-04 17:57 47.21468 13.50656 32989 ft 483 kts 137°
2026-05-04 17:58 47.16752 13.57695 32996 ft 483 kts 137°
2026-05-04 17:58 47.12018 13.64739 33008 ft 485 kts 137°
2026-05-04 17:59 47.07292 13.71751 33000 ft 486 kts 137°
2026-05-04 18:00 47.00135 13.82339 33019 ft 486 kts 137°
2026-05-04 18:00 46.95367 13.89367 33015 ft 486 kts 137°
2026-05-04 18:01 46.90586 13.96396 33014 ft 487 kts 137°
2026-05-04 18:01 46.85836 14.03360 32993 ft 487 kts 137°
2026-05-04 18:02 46.78649 14.13866 33022 ft 487 kts 137°
2026-05-04 18:02 46.73860 14.20840 33030 ft 487 kts 137°
2026-05-04 18:03 46.69057 14.27820 33015 ft 487 kts 137°
2026-05-04 18:03 46.64249 14.34785 33017 ft 487 kts 137°
2026-05-04 18:04 46.59436 14.41740 33023 ft 488 kts 137°
2026-05-04 18:05 46.52237 14.52112 33029 ft 489 kts 138°
2026-05-04 18:05 46.47394 14.59069 33023 ft 489 kts 137°
2026-05-04 18:06 46.40983 14.69213 33028 ft 491 kts 132°
2026-05-04 18:06 46.36569 14.76785 33031 ft 492 kts 133°
2026-05-04 18:07 46.32146 14.84323 33036 ft 492 kts 133°
2026-05-04 18:07 46.27720 14.91813 33031 ft 493 kts 132°
2026-05-04 18:08 46.23255 14.99336 33035 ft 493 kts 132°
2026-05-04 18:08 46.18780 15.06859 33024 ft 494 kts 132°
2026-05-04 18:09 46.09795 15.21898 33024 ft 493 kts 132°
2026-05-04 18:10 46.05316 15.29368 33013 ft 493 kts 132°
2026-05-04 18:10 46.00827 15.36834 33020 ft 494 kts 132°
2026-05-04 18:11 45.96349 15.44260 33026 ft 495 kts 132°
2026-05-04 18:11 45.91828 15.51738 33018 ft 496 kts 132°
2026-05-04 18:12 45.87291 15.59222 33029 ft 496 kts 132°
2026-05-04 18:12 45.82757 15.66680 33020 ft 495 kts 132°
2026-05-04 18:13 45.78231 15.74105 33011 ft 495 kts 133°
2026-05-04 18:14 45.71458 15.85180 33012 ft 494 kts 132°
2026-05-04 18:14 45.66927 15.92563 33005 ft 494 kts 131°
2026-05-04 18:15 45.57844 16.07309 33014 ft 494 kts 132°
2026-05-04 18:16 45.53285 16.14679 33010 ft 494 kts 132°
2026-05-04 18:16 45.48726 16.22030 33003 ft 496 kts 131°
2026-05-04 18:17 45.41850 16.33081 33019 ft 498 kts 131°
2026-05-04 18:18 45.34932 16.44155 33024 ft 499 kts 132°
2026-05-04 18:18 45.30331 16.51496 33011 ft 500 kts 131°
2026-05-04 18:19 45.23373 16.62566 33021 ft 501 kts 131°
2026-05-04 18:19 45.18722 16.69956 33020 ft 502 kts 131°
2026-05-04 18:20 45.14129 16.77410 33024 ft 502 kts 130°
2026-05-04 18:20 45.09535 16.84885 33015 ft 502 kts 131°
2026-05-04 18:21 45.04934 16.92326 33047 ft 502 kts 131°
2026-05-04 18:21 45.00323 16.99753 33025 ft 503 kts 131°
2026-05-04 18:22 44.95697 17.07100 33020 ft 503 kts 134°
2026-05-04 18:22 44.90760 17.14096 33022 ft 503 kts 135°
2026-05-04 18:23 44.85782 17.21020 33022 ft 502 kts 135°
2026-05-04 18:23 44.80813 17.27947 33024 ft 503 kts 135°
2026-05-04 18:24 44.75843 17.34891 33029 ft 503 kts 135°
2026-05-04 18:24 44.70868 17.41837 33030 ft 504 kts 135°
2026-05-04 18:25 44.65891 17.48768 33034 ft 504 kts 135°
2026-05-04 18:25 44.60935 17.55650 33049 ft 504 kts 135°
2026-05-04 18:26 44.55946 17.62556 33037 ft 504 kts 135°
2026-05-04 18:26 44.50945 17.69463 33051 ft 504 kts 135°
2026-05-04 18:27 44.45942 17.76356 33051 ft 505 kts 135°
2026-05-04 18:27 44.40920 17.83257 33045 ft 505 kts 135°
2026-05-04 18:28 44.35901 17.90137 33048 ft 506 kts 135°
2026-05-04 18:28 44.30875 17.97008 33058 ft 505 kts 135°
2026-05-04 18:29 44.25867 18.03836 33059 ft 506 kts 135°
2026-05-04 18:29 44.20824 18.10698 33052 ft 507 kts 135°
2026-05-04 18:30 44.13231 18.20994 33063 ft 508 kts 135°
2026-05-04 18:31 44.08158 18.27851 33052 ft 509 kts 135°
2026-05-04 18:31 44.03103 18.34666 33056 ft 509 kts 135°
2026-05-04 18:32 43.98007 18.41521 33048 ft 509 kts 135°
2026-05-04 18:32 43.92911 18.48357 33058 ft 509 kts 135°
2026-05-04 18:33 43.87811 18.55183 33054 ft 509 kts 135°
2026-05-04 18:33 43.82702 18.62002 33051 ft 509 kts 135°
2026-05-04 18:34 43.77630 18.68755 33063 ft 509 kts 135°
2026-05-04 18:34 43.72513 18.75551 33075 ft 509 kts 135°
2026-05-04 18:35 43.67392 18.82336 33081 ft 509 kts 135°
2026-05-04 18:35 43.62272 18.89103 33076 ft 509 kts 135°
2026-05-04 18:36 43.57147 18.95858 33079 ft 509 kts 135°
2026-05-04 18:36 43.52048 19.02564 33085 ft 509 kts 135°
2026-05-04 18:37 43.46918 19.09295 33082 ft 509 kts 135°
2026-05-04 18:37 43.41785 19.16012 33102 ft 509 kts 135°
2026-05-04 18:38 43.36640 19.22728 33100 ft 509 kts 135°
2026-05-04 18:38 43.31499 19.29422 33093 ft 510 kts 135°
2026-05-04 18:39 43.26345 19.36119 33097 ft 510 kts 135°
2026-05-04 18:39 43.21184 19.42807 33097 ft 510 kts 135°
2026-05-04 18:40 43.16024 19.49477 33113 ft 510 kts 135°
2026-05-04 18:40 43.10885 19.56105 33106 ft 510 kts 135°
2026-05-04 18:41 43.05708 19.62764 33107 ft 509 kts 135°
2026-05-04 18:41 43.01415 19.68274 33121 ft 509 kts 135°
2026-05-04 18:42 42.96250 19.74889 33117 ft 509 kts 135°
2026-05-04 18:42 42.91082 19.81494 33147 ft 509 kts 135°
2026-05-04 18:43 42.85900 19.88099 33134 ft 509 kts 135°
2026-05-04 18:43 42.80708 19.94703 33141 ft 510 kts 135°
2026-05-04 18:44 42.75526 20.01303 33156 ft 509 kts 133°
2026-05-04 18:44 42.70866 20.08514 33147 ft 507 kts 126°
2026-05-04 18:45 42.66453 20.15914 33154 ft 508 kts 126°
2026-05-04 18:45 42.61977 20.23358 33136 ft 509 kts 127°
2026-05-04 18:46 42.57475 20.30768 33144 ft 509 kts 127°
2026-05-04 18:46 42.52952 20.38176 33134 ft 509 kts 127°
2026-05-04 18:47 42.48459 20.45517 33134 ft 509 kts 127°
2026-05-04 18:47 42.43934 20.52897 33143 ft 509 kts 127°
2026-05-04 18:48 42.39400 20.60274 33140 ft 509 kts 127°
2026-05-04 18:48 42.34868 20.67632 33139 ft 509 kts 127°
2026-05-04 18:49 42.30337 20.74967 33140 ft 509 kts 127°
2026-05-04 18:49 42.25788 20.82314 33175 ft 509 kts 127°
2026-05-04 18:50 42.21265 20.89600 33141 ft 509 kts 127°
2026-05-04 18:50 42.16709 20.96927 33136 ft 509 kts 127°
2026-05-04 18:51 42.12151 21.04229 33123 ft 509 kts 128°
2026-05-04 18:51 42.07160 21.11032 33131 ft 511 kts 134°
2026-05-04 18:52 42.01946 21.17529 33131 ft 511 kts 135°
2026-05-04 18:52 41.96760 21.24019 33127 ft 509 kts 134°
2026-05-04 18:53 41.91587 21.30528 33123 ft 508 kts 134°
2026-05-04 18:53 41.86470 21.36986 33118 ft 508 kts 134°
2026-05-04 18:54 41.81315 21.43472 33103 ft 508 kts 134°
2026-05-04 18:54 41.76142 21.49956 33101 ft 509 kts 134°
2026-05-04 18:55 41.70988 21.56400 33105 ft 510 kts 135°
2026-05-04 18:55 41.63188 21.66125 33102 ft 511 kts 135°
2026-05-04 18:56 41.57976 21.72605 33102 ft 512 kts 135°
2026-05-04 18:56 41.52743 21.79097 33112 ft 513 kts 135°
2026-05-04 18:57 41.47525 21.85555 33103 ft 510 kts 135°
2026-05-04 18:57 41.42329 21.91971 33101 ft 508 kts 135°
2026-05-04 18:58 41.37147 21.98355 33100 ft 506 kts 135°
2026-05-04 18:58 41.31972 22.04716 33105 ft 505 kts 135°
2026-05-04 18:59 41.26807 22.11052 33105 ft 505 kts 135°
2026-05-04 18:59 41.21678 22.17332 33097 ft 504 kts 136°
2026-05-04 19:00 41.16509 22.23636 33114 ft 503 kts 136°
2026-05-04 19:00 41.11140 22.29575 33115 ft 502 kts 140°
2026-05-04 19:01 41.05689 22.35375 33076 ft 502 kts 140°
2026-05-04 19:01 41.00246 22.41179 33075 ft 502 kts 140°
2026-05-04 19:02 40.94810 22.47000 33107 ft 502 kts 140°
2026-05-04 19:02 40.89430 22.52758 33077 ft 499 kts 140°
2026-05-04 19:03 40.84036 22.58520 33071 ft 496 kts 140°
2026-05-04 19:03 40.78676 22.64230 33066 ft 494 kts 140°
2026-05-04 19:04 40.73330 22.69913 33079 ft 492 kts 140°
2026-05-04 19:04 40.67995 22.75573 33080 ft 493 kts 140°
2026-05-04 19:05 40.62640 22.81242 33090 ft 493 kts 140°
2026-05-04 19:05 40.57323 22.86858 33079 ft 492 kts 140°
2026-05-04 19:06 40.51989 22.92483 33074 ft 491 kts 140°
2026-05-04 19:06 40.46661 22.98100 33072 ft 489 kts 139°
2026-05-04 19:07 40.41803 23.04325 33079 ft 487 kts 132°
2026-05-04 19:07 40.37176 23.10816 33090 ft 487 kts 133°
2026-05-04 19:08 40.32531 23.17278 33093 ft 486 kts 133°
2026-05-04 19:08 40.27905 23.23656 33091 ft 486 kts 133°
2026-05-04 19:09 40.23246 23.30053 33092 ft 485 kts 133°
2026-05-04 19:09 40.18585 23.36437 33091 ft 485 kts 133°
2026-05-04 19:10 40.13919 23.42816 33093 ft 485 kts 133°
2026-05-04 19:10 40.09255 23.49180 33092 ft 485 kts 133°
2026-05-04 19:11 40.04615 23.55499 33087 ft 484 kts 133°
2026-05-04 19:11 39.99951 23.61837 33089 ft 484 kts 133°
2026-05-04 19:12 39.92940 23.71339 33089 ft 484 kts 133°
2026-05-04 19:13 39.88266 23.77656 33093 ft 484 kts 133°
2026-05-04 19:13 39.83581 23.83976 33088 ft 485 kts 133°
2026-05-04 19:14 39.78886 23.90296 33090 ft 486 kts 133°
2026-05-04 19:14 39.74175 23.96624 33087 ft 486 kts 133°
2026-05-04 19:15 39.69461 24.02943 33092 ft 487 kts 133°
2026-05-04 19:15 39.64769 24.09219 33093 ft 487 kts 133°
2026-05-04 19:16 39.60037 24.15537 33093 ft 488 kts 133°
2026-05-04 19:16 39.55301 24.21846 33090 ft 488 kts 133°
2026-05-04 19:17 39.50554 24.28156 33090 ft 489 kts 133°
2026-05-04 19:17 39.45800 24.34463 33097 ft 488 kts 133°
2026-05-04 19:18 39.41056 24.40746 33094 ft 488 kts 133°
2026-05-04 19:18 39.36334 24.46987 33095 ft 489 kts 133°
2026-05-04 19:19 39.31577 24.53284 33097 ft 489 kts 133°
2026-05-04 19:19 39.26856 24.59627 33095 ft 490 kts 132°
2026-05-04 19:20 39.22127 24.65978 33098 ft 490 kts 133°
2026-05-04 19:20 39.17393 24.72308 33101 ft 490 kts 133°
2026-05-04 19:21 39.12654 24.78629 33099 ft 490 kts 133°
2026-05-04 19:21 39.07894 24.84919 33097 ft 491 kts 133°
2026-05-04 19:22 39.03107 24.91113 33095 ft 490 kts 133°
2026-05-04 19:22 38.98283 24.97336 33098 ft 491 kts 134°
2026-05-04 19:23 38.93459 25.03563 33110 ft 491 kts 133°
2026-05-04 19:23 38.88632 25.09790 33104 ft 491 kts 133°
2026-05-04 19:24 38.83807 25.16004 33097 ft 491 kts 133°
2026-05-04 19:24 38.78988 25.22196 33101 ft 491 kts 133°
2026-05-04 19:25 38.74191 25.28347 33100 ft 490 kts 134°
2026-05-04 19:25 38.69360 25.34530 33118 ft 490 kts 133°
2026-05-04 19:26 38.64527 25.40703 33091 ft 491 kts 133°
2026-05-04 19:26 38.59690 25.46868 33094 ft 491 kts 133°
2026-05-04 19:27 38.54846 25.53029 33105 ft 491 kts 134°
2026-05-04 19:27 38.50818 25.58144 33110 ft 491 kts 134°
2026-05-04 19:28 38.45181 25.65287 33122 ft 491 kts 133°
2026-05-04 19:28 38.40330 25.71425 33100 ft 492 kts 133°
2026-05-04 19:29 38.36251 25.76576 33106 ft 492 kts 133°
2026-05-04 19:29 38.31432 25.82700 33104 ft 492 kts 133°
2026-05-04 19:30 38.26402 25.88599 33090 ft 494 kts 142°
2026-05-04 19:30 38.20416 25.92910 33105 ft 497 kts 157°
2026-05-04 19:31 38.13886 25.95851 33110 ft 498 kts 159°
2026-05-04 19:31 38.07312 25.98737 33107 ft 500 kts 159°
2026-05-04 19:32 38.00780 26.01671 33101 ft 502 kts 159°
2026-05-04 19:32 37.94181 26.04660 33096 ft 503 kts 159°
2026-05-04 19:32 37.90898 26.06145 32987 ft 497 kts 159°
2026-05-04 19:33 37.87663 26.07605 32539 ft 491 kts 159°
2026-05-04 19:33 37.84484 26.09039 31698 ft 493 kts 159°
2026-05-04 19:33 37.81189 26.10525 30630 ft 500 kts 158°
2026-05-04 19:33 37.77896 26.12009 29669 ft 503 kts 159°
2026-05-04 19:34 37.74594 26.13492 28836 ft 502 kts 159°
2026-05-04 19:34 37.71358 26.14948 28213 ft 493 kts 159°
2026-05-04 19:34 37.68181 26.16377 27217 ft 477 kts 159°
2026-05-04 19:34 37.65065 26.17781 26539 ft 471 kts 159°
2026-05-04 19:35 37.61995 26.19166 25995 ft 468 kts 159°
2026-05-04 19:35 37.58936 26.20546 25462 ft 466 kts 159°
2026-05-04 19:35 37.55888 26.21919 24919 ft 464 kts 159°
2026-05-04 19:35 37.52857 26.23282 24398 ft 462 kts 159°
2026-05-04 19:36 37.49840 26.24637 23843 ft 460 kts 159°
2026-05-04 19:36 37.46821 26.25992 23280 ft 459 kts 159°
2026-05-04 19:36 37.43849 26.27325 22700 ft 458 kts 159°
2026-05-04 19:36 37.40853 26.28667 22155 ft 455 kts 159°
2026-05-04 19:37 37.37874 26.30000 21626 ft 453 kts 159°
2026-05-04 19:37 37.34915 26.31323 21108 ft 451 kts 160°
2026-05-04 19:37 37.31960 26.32644 20586 ft 449 kts 160°
2026-05-04 19:37 37.29019 26.33957 20087 ft 447 kts 160°
2026-05-04 19:38 37.26095 26.35262 19571 ft 446 kts 160°
2026-05-04 19:38 37.23179 26.36562 19073 ft 445 kts 160°
2026-05-04 19:38 37.20254 26.37864 18560 ft 444 kts 160°
2026-05-04 19:38 37.17341 26.39156 17975 ft 444 kts 160°
2026-05-04 19:39 37.14433 26.40442 17427 ft 442 kts 160°
2026-05-04 19:39 37.11538 26.41721 16898 ft 441 kts 160°
2026-05-04 19:39 37.08689 26.42979 16372 ft 438 kts 160°
2026-05-04 19:39 37.05816 26.44247 15849 ft 437 kts 160°
2026-05-04 19:40 37.02952 26.45511 15329 ft 435 kts 160°
2026-05-04 19:40 37.00106 26.46767 14817 ft 433 kts 160°
2026-05-04 19:40 36.97264 26.48019 14295 ft 432 kts 160°
2026-05-04 19:40 36.94500 26.49340 13695 ft 414 kts 153°
2026-05-04 19:41 36.92131 26.51184 13111 ft 390 kts 139°
2026-05-04 19:41 36.90260 26.53486 12639 ft 366 kts 128°
2026-05-04 19:41 36.88669 26.55974 12225 ft 368 kts 123°
2026-05-04 19:41 36.87276 26.58696 11777 ft 377 kts 115°
2026-05-04 19:42 36.86048 26.61660 11318 ft 390 kts 114°
2026-05-04 19:42 36.84798 26.64659 11048 ft 386 kts 115°
2026-05-04 19:42 36.83560 26.67576 10952 ft 374 kts 115°
2026-05-04 19:42 36.82221 26.70275 10825 ft 362 kts 126°
2026-05-04 19:43 36.80594 26.72613 10765 ft 351 kts 131°
2026-05-04 19:43 36.78946 26.74746 10677 ft 340 kts 132°
2026-05-04 19:43 36.77334 26.76834 10584 ft 328 kts 131°
2026-05-04 19:43 36.75794 26.78873 10513 ft 315 kts 130°
2026-05-04 19:44 36.74339 26.80841 10441 ft 302 kts 130°
2026-05-04 19:44 36.72979 26.82700 10276 ft 279 kts 129°
2026-05-04 19:44 36.71748 26.84475 9804 ft 264 kts 121°
2026-05-04 19:44 36.70800 26.86445 8970 ft 265 kts 113°
2026-05-04 19:45 36.69961 26.88475 8925 ft 275 kts 113°
2026-05-04 19:45 36.69041 26.90709 8589 ft 292 kts 114°
2026-05-04 19:45 36.68096 26.92939 8226 ft 288 kts 115°
2026-05-04 19:45 36.67156 26.95116 7791 ft 280 kts 115°
2026-05-04 19:46 36.66271 26.97138 7505 ft 260 kts 115°
2026-05-04 19:46 36.65427 26.99053 7107 ft 245 kts 115°
2026-05-04 19:46 36.64621 27.00881 6644 ft 236 kts 115°
2026-05-04 19:46 36.63839 27.02654 6101 ft 231 kts 115°
2026-05-04 19:47 36.63080 27.04367 5619 ft 222 kts 115°
2026-05-04 19:47 36.62348 27.06018 5129 ft 214 kts 114°
2026-05-04 19:47 36.61636 27.07622 4591 ft 210 kts 114°
2026-05-04 19:47 36.60933 27.09205 3942 ft 210 kts 114°
2026-05-04 19:48 36.60226 27.10796 3363 ft 208 kts 114°
2026-05-04 19:48 36.59570 27.12380 2807 ft 200 kts 100°
2026-05-04 19:48 36.59603 27.13989 2566 ft 187 kts 62°
2026-05-04 19:48 36.60090 27.15526 2833 ft 196 kts 65°
2026-05-04 19:49 36.60554 27.17158 2890 ft 202 kts 64°
2026-05-04 19:49 36.61043 27.18782 2740 ft 202 kts 62°
2026-05-04 19:49 36.61665 27.20275 2437 ft 180 kts 36°
2026-05-04 19:49 36.62709 27.20947 2477 ft 170 kts
2026-05-04 19:50 36.63869 27.21007 2461 ft 165 kts 349°
2026-05-04 19:50 36.64890 27.20447 2463 ft 160 kts 327°
2026-05-04 19:50 36.65841 27.19683 2489 ft 164 kts 329°
2026-05-04 19:50 36.66806 27.18940 2464 ft 162 kts 329°
2026-05-04 19:51 36.67751 27.18207 2484 ft 160 kts 329°
2026-05-04 19:51 36.68671 27.17488 2477 ft 157 kts 329°
2026-05-04 19:51 36.69564 27.16794 2447 ft 145 kts 329°
2026-05-04 19:51 36.70401 27.16146 2376 ft 141 kts 329°
2026-05-04 19:52 36.71248 27.15492 2016 ft 141 kts 329°
2026-05-04 19:52 36.72066 27.14865 1731 ft 134 kts 329°
2026-05-04 19:52 36.72853 27.14245 1613 ft 135 kts 327°
2026-05-04 19:52 36.73634 27.13590 1539 ft 136 kts 327°
2026-05-04 19:53 36.74446 27.12946 1430 ft 140 kts 329°
2026-05-04 19:53 36.75283 27.12299 1157 ft 143 kts 329°
2026-05-04 19:53 36.76097 27.11676 953 ft 137 kts 329°
2026-05-04 19:53 36.76898 27.11061 812 ft 133 kts 329°
2026-05-04 19:54 36.77741 27.10423 616 ft 149 kts 330°
2026-05-04 19:54 36.78630 27.09745 412 ft 145 kts 329°
2026-05-04 19:54 36.79410 27.09154 410 ft 110 kts 328°
2026-05-04 19:54 36.79834 27.08827 406 ft 44 kts 328°
2026-05-04 19:55 36.80038 27.08668 409 ft 35 kts 327°
2026-05-04 19:55 36.80226 27.08519 414 ft 26 kts 327°
2026-05-04 19:55 36.80311 27.08464 416 ft 12 kts 350°
2026-05-04 19:55 36.80349 27.08537 417 ft 12 kts 93°
2026-05-04 19:56 36.80330 27.08640 416 ft 12 kts 115°
2026-05-04 19:56 36.80269 27.08719 415 ft 13 kts 142°
2026-05-04 19:56 36.80193 27.08783 410 ft 14 kts 147°
2026-05-04 19:56 36.80109 27.08846 411 ft 14 kts 148°
2026-05-04 19:57 36.80020 27.08913 410 ft 15 kts 149°
2026-05-04 19:57 36.79951 27.08967 407 ft 0 kts 147°
2026-05-04 19:57 36.79939 27.08977 409 ft 4 kts 145°
2026-05-04 19:58 36.79924 27.09020 409 ft 6 kts 96°
2026-05-04 19:58 36.79924 27.09050 415 ft 0 kts 85°
2026-05-04 19:58 36.79929 27.09090 414 ft 0 kts 79°